[[{"header":{"parameterUnit":"m.s-1","parameterCategory":1,"la1":30.2991,"la2":30.254,"lo1":-89.0895,"lo2":-89.0444,"dy":0.0017,"dx":0.0017,"nx":28,"ny":28,"refTime":"2023-10-08T09:00:00:Z","depth":0,"parameterNumber":2,"parameterNumberName":"U-component_of_WINDS"},"data":[0,0,0,0,0,0,0,0,0,0,0,0,0,0,0,0,0,0,0,0,0,0,0,0,0,0,0,0,0,0,0,0,0,0,0,0,0,0,0,0,0,0,0,0,0,0,0,0,0,0,0,0,0,0,0,0,0,0,-0.4212,-0.4212,0,-0.4292,-0.4292,-0.4293,-0.4349,-0.4349,-0.435,-0.435,-0.4429,-0.4431,-0.4433,0,0,0,0,0,0,0,0,0,0,0,0,0,-0.4103,-0.4105,-0.4211,-0.4212,-0.4213,-0.4291,-0.4293,-0.4294,-0.4349,-0.4349,-0.435,-0.435,-0.4429,-0.4431,-0.4433,0,0,0,0,0,0,0,0,0,0,0,0,0,-0.4163,-0.4106,-0.4211,-0.425,-0.4255,-0.4291,-0.4293,-0.4294,-0.4349,-0.4349,-0.435,-0.4351,-0.4428,-0.443,-0.4433,-0.4436,0,0,-0.4441,-0.4442,0,0,0,0,0,0,0,0,-0.416,-0.4167,-0.4244,-0.4248,-0.4253,-0.4311,-0.4284,-0.4341,-0.4349,-0.4313,-0.435,-0.4351,-0.4389,-0.4395,-0.4408,-0.444,-0.4443,-0.4441,-0.4443,-0.4444,-0.4444,0,0,0,0,0,0,0,-0.4156,-0.4164,-0.4243,-0.4245,-0.425,-0.4263,-0.4272,-0.4295,-0.4346,-0.4316,-0.432,-0.4329,-0.4392,-0.4406,-0.4411,-0.4444,-0.4441,-0.4443,-0.4445,-0.4446,-0.4481,-0.4481,0,0,0,0,0,0,-0.4146,-0.416,-0.4241,-0.4246,-0.4207,-0.4265,-0.4275,-0.4292,-0.4346,-0.4355,-0.4329,-0.4331,-0.4401,-0.4408,-0.4414,-0.4421,-0.4444,-0.4446,-0.4448,-0.4482,-0.4481,-0.448,0,0,0,0,0,0,-0.4143,-0.4153,-0.4237,-0.4204,-0.4216,-0.4266,-0.4284,-0.4293,-0.4307,-0.4356,-0.4365,-0.4334,-0.4402,-0.441,-0.443,-0.4424,-0.4447,-0.445,-0.4482,-0.4482,-0.4481,-0.4434,0,0,0,0,0,0,-0.414,-0.4151,-0.4154,-0.4204,-0.4218,-0.4253,-0.4284,-0.4294,-0.4312,-0.4316,-0.4363,-0.4371,-0.4403,-0.4426,-0.4433,-0.4428,-0.4452,-0.4483,-0.4482,-0.4481,-0.4436,-0.4432,-0.4428,0,0,0,0,0,-0.4136,-0.4137,-0.4153,-0.4163,-0.4222,-0.4253,-0.426,-0.4298,-0.4311,-0.4313,-0.4344,-0.437,-0.4424,-0.4428,-0.4436,-0.4432,-0.4484,-0.4482,-0.4481,-0.4438,-0.4433,-0.4428,0,0,0,0,0,0,-0.4084,-0.4144,-0.4163,-0.4181,-0.4211,-0.4262,-0.4266,-0.4291,-0.4317,-0.432,-0.4365,-0.4375,-0.439,-0.4413,-0.4416,-0.4437,-0.4457,-0.4457,-0.4422,-0.4417,-0.4412,-0.4406,-0.4454,0,0,0,0,0,-0.4074,-0.4095,-0.4147,-0.4157,-0.4171,-0.4216,-0.4231,-0.4257,-0.429,-0.4303,-0.4336,-0.4366,-0.439,-0.4404,-0.4429,-0.444,-0.4451,-0.4441,-0.4437,-0.4433,-0.4432,-0.444,-0.4436,-0.4476,-0.4476,-0.4476,0,0,-0.4055,-0.4091,-0.4101,-0.4147,-0.4174,-0.4194,-0.4226,-0.4246,-0.4261,-0.4306,-0.4327,-0.4352,-0.4388,-0.4404,-0.4412,-0.4423,-0.4424,-0.4431,-0.4428,-0.443,-0.4438,-0.4434,-0.443,-0.4475,-0.4475,-0.4475,0,0,-0.403,-0.4059,-0.4071,-0.4097,-0.4138,-0.4167,-0.417,-0.4217,-0.4235,-0.4258,-0.4291,-0.4309,-0.4349,-0.4374,-0.4392,-0.4375,-0.4399,-0.4382,-0.4359,-0.4365,-0.4362,-0.436,-0.4353,-0.4351,-0.4381,-0.4381,-0.4381,0,-0.4,-0.4033,-0.4073,-0.4091,-0.411,-0.4152,-0.4164,-0.4187,-0.4233,-0.4245,-0.4257,-0.4308,-0.4335,-0.4357,-0.4353,-0.4366,-0.437,-0.4377,-0.436,-0.4357,-0.4356,-0.435,-0.4348,-0.4379,-0.4379,-0.4379,-0.438,0,-0.3994,-0.4016,-0.4021,-0.4065,-0.4084,-0.4099,-0.414,-0.4155,-0.4179,-0.4207,-0.4228,-0.4263,-0.4295,-0.4302,-0.4326,-0.4327,-0.4333,-0.4351,-0.4372,-0.4349,-0.4344,-0.4342,-0.4375,-0.4376,-0.4377,-0.4377,0,0,-0.3939,-0.4005,-0.4006,-0.4026,-0.4074,-0.4091,-0.4107,-0.4139,-0.4151,-0.4181,-0.4195,-0.4227,-0.4245,-0.4265,-0.4292,-0.4297,-0.4281,-0.4316,-0.4317,-0.4308,-0.4284,-0.427,-0.4267,-0.4298,-0.4298,-0.4297,-0.4281,0,-0.3921,-0.3953,-0.399,-0.4009,-0.4029,-0.4069,-0.4082,-0.4112,-0.4139,-0.4159,-0.4188,-0.421,-0.4232,-0.4244,-0.4251,-0.4282,-0.4277,-0.4284,-0.431,-0.4311,-0.43,-0.4264,-0.4249,-0.4232,-0.428,-0.4279,-0.4279,0,-0.3904,-0.3933,-0.3954,-0.3999,-0.4009,-0.4021,-0.4053,-0.4072,-0.4107,-0.4125,-0.4148,-0.4176,-0.4194,-0.4212,-0.4237,-0.424,-0.4253,-0.427,-0.427,-0.4274,-0.4293,-0.4267,-0.4228,-0.4225,-0.4277,-0.4277,-0.4277,0,-0.3861,-0.3905,-0.3923,-0.3939,-0.3993,-0.4,-0.4022,-0.4058,-0.4075,-0.4102,-0.4114,-0.4143,-0.4158,-0.418,-0.4215,-0.4225,-0.4236,-0.4257,-0.4251,-0.425,-0.4251,-0.4251,-0.4213,-0.426,-0.426,-0.426,-0.426,0,-0.3837,-0.3848,-0.3905,-0.3916,-0.3929,-0.3971,-0.3983,-0.4008,-0.4039,-0.4055,-0.4091,-0.4105,-0.4151,-0.417,-0.4198,-0.4214,-0.4221,-0.4236,-0.4243,-0.4232,-0.423,-0.4241,-0.4243,-0.4259,-0.4259,-0.4259,-0.426,0,-0.3792,-0.383,-0.3852,-0.3901,-0.3913,-0.3921,-0.3962,-0.3974,-0.4002,-0.4022,-0.4029,-0.4073,-0.4098,-0.4135,-0.417,-0.4189,-0.42,-0.4212,-0.4189,-0.4193,-0.4185,-0.4185,-0.4153,-0.4151,-0.4198,-0.4198,-0.4197,0,-0.3774,-0.3783,-0.3833,-0.3847,-0.3868,-0.389,-0.3907,-0.3948,-0.3965,-0.4005,-0.4011,-0.4039,-0.4063,-0.41,-0.4134,-0.4162,-0.4174,-0.4161,-0.4178,-0.4168,-0.4174,-0.4173,-0.4173,-0.4157,-0.4156,-0.4156,-0.4155,0,-0.3738,-0.3756,-0.3781,-0.3811,-0.3831,-0.3857,-0.3885,-0.3894,-0.3941,-0.3957,-0.3983,-0.4002,-0.4038,-0.4065,-0.4097,-0.4119,-0.4144,-0.4149,-0.4149,-0.4139,-0.4125,-0.4132,-0.4177,-0.415,-0.415,-0.4151,-0.4151,-0.4151,-0.3705,-0.3716,-0.3752,-0.3778,-0.3803,-0.3828,-0.3841,-0.3871,-0.3894,-0.3928,-0.395,-0.3974,-0.4008,-0.4053,-0.4074,-0.4093,-0.4104,-0.4104,-0.4104,-0.4103,-0.4099,-0.4122,-0.4099,-0.4099,-0.4099,-0.4099,-0.41,0,-0.3671,-0.3697,-0.372,-0.3758,-0.3778,-0.3801,-0.3832,-0.3847,-0.3869,-0.3898,-0.3921,-0.395,-0.3976,-0.4013,-0.4041,-0.4049,-0.4061,-0.4055,-0.4055,-0.4059,-0.4088,-0.4085,-0.4045,-0.4045,-0.4045,-0.4045,-0.4045,-0.4045,-0.3656,-0.3674,-0.3697,-0.3727,-0.3753,-0.3778,-0.3794,-0.3816,-0.384,-0.3871,-0.3893,-0.3917,-0.3949,-0.398,-0.4004,-0.4014,-0.4023,-0.4013,-0.4026,-0.4052,-0.4057,-0.4062,-0.406,-0.4014,-0.4014,-0.3996,-0.3996,-0.3996]},{"header":{"parameterUnit":"m.s-1","parameterCategory":1,"la1":30.2991,"la2":30.254,"lo1":-89.0895,"lo2":-89.0444,"dy":0.0017,"dx":0.0017,"nx":28,"ny":28,"refTime":"2023-10-08T09:00:00:Z","depth":0,"parameterNumber":3,"parameterNumberName":"V-component_of_WINDS"},"data":[0,0,0,0,0,0,0,0,0,0,0,0,0,0,0,0,0,0,0,0,0,0,0,0,0,0,0,0,0,0,0,0,0,0,0,0,0,0,0,0,0,0,0,0,0,0,0,0,0,0,0,0,0,0,0,0,0,0,-2.093,-2.0931,0,-2.1041,-2.1043,-2.1044,-2.1034,-2.1032,-2.103,-2.1028,-2.1145,-2.115,-2.1154,0,0,0,0,0,0,0,0,0,0,0,0,0,-2.071,-2.0714,-2.093,-2.0931,-2.0932,-2.1041,-2.1043,-2.1044,-2.1034,-2.1032,-2.103,-2.1028,-2.1143,-2.1149,-2.1155,0,0,0,0,0,0,0,0,0,0,0,0,0,-2.0812,-2.0715,-2.0929,-2.094,-2.0942,-2.1041,-2.1043,-2.1045,-2.1034,-2.1032,-2.1029,-2.1027,-2.1142,-2.1149,-2.1155,-2.1251,0,0,-2.1177,-2.118,0,0,0,0,0,0,0,0,-2.0806,-2.082,-2.0937,-2.094,-2.0942,-2.1021,-2.1008,-2.1114,-2.1035,-2.1,-2.1028,-2.1025,-2.1106,-2.1116,-2.1142,-2.1256,-2.1261,-2.1178,-2.1182,-2.1185,-2.1187,0,0,0,0,0,0,0,-2.0799,-2.0815,-2.0974,-2.0939,-2.0942,-2.094,-2.0952,-2.1028,-2.1066,-2.1002,-2.1002,-2.1015,-2.1107,-2.1136,-2.1145,-2.1263,-2.1177,-2.1184,-2.1188,-2.1191,-2.1461,-2.1463,0,0,0,0,0,0,-2.0789,-2.0809,-2.097,-2.0977,-2.0866,-2.0946,-2.0959,-2.0998,-2.1065,-2.1073,-2.1017,-2.1014,-2.1125,-2.1137,-2.1149,-2.1265,-2.1185,-2.1192,-2.1196,-2.1458,-2.1461,-2.1464,0,0,0,0,0,0,-2.0784,-2.0803,-2.0966,-2.0893,-2.0914,-2.0953,-2.0997,-2.1002,-2.1031,-2.1076,-2.1083,-2.104,-2.1123,-2.1139,-2.1225,-2.1269,-2.1195,-2.1201,-2.1454,-2.1459,-2.1463,-2.1498,0,0,0,0,0,0,-2.0778,-2.0802,-2.0838,-2.0894,-2.0917,-2.104,-2.0999,-2.1006,-2.1043,-2.104,-2.1099,-2.1106,-2.1123,-2.1215,-2.1232,-2.1277,-2.1207,-2.145,-2.1456,-2.1461,-2.1493,-2.1503,-2.1511,0,0,0,0,0,-2.077,-2.0844,-2.084,-2.0859,-2.0963,-2.1042,-2.1056,-2.1072,-2.1046,-2.1083,-2.1112,-2.1105,-2.1261,-2.1224,-2.1243,-2.1291,-2.1448,-2.1455,-2.1461,-2.1489,-2.1501,-2.1511,0,0,0,0,0,0,-2.0793,-2.0851,-2.0848,-2.0942,-2.0987,-2.104,-2.1087,-2.1084,-2.1139,-2.1134,-2.1153,-2.1166,-2.1253,-2.1281,-2.1238,-2.1387,-2.1351,-2.1362,-2.1366,-2.1377,-2.1386,-2.1378,-2.1213,0,0,0,0,0,-2.0809,-2.0867,-2.0915,-2.0994,-2.1016,-2.1048,-2.1083,-2.1092,-2.114,-2.1159,-2.1195,-2.1242,-2.1302,-2.1341,-2.1399,-2.1497,-2.151,-2.1539,-2.1548,-2.1556,-2.1565,-2.1619,-2.1632,-2.1486,-2.1486,-2.1486,0,0,-2.0842,-2.0881,-2.0917,-2.0999,-2.1035,-2.1096,-2.1064,-2.113,-2.1175,-2.1169,-2.1252,-2.128,-2.1335,-2.1427,-2.1469,-2.1453,-2.1608,-2.1564,-2.157,-2.1575,-2.1627,-2.1641,-2.1653,-2.149,-2.149,-2.1489,0,0,-2.0934,-2.097,-2.1039,-2.1075,-2.113,-2.1151,-2.1167,-2.1221,-2.1239,-2.1323,-2.1319,-2.1374,-2.1477,-2.1516,-2.1549,-2.1655,-2.165,-2.1673,-2.1722,-2.1774,-2.1785,-2.1796,-2.1834,-2.1847,-2.1682,-2.1683,-2.1683,0,-2.0969,-2.106,-2.1075,-2.1141,-2.1177,-2.1173,-2.1244,-2.1279,-2.135,-2.1375,-2.1355,-2.1484,-2.1521,-2.1622,-2.1648,-2.1675,-2.1694,-2.1667,-2.1782,-2.1793,-2.1803,-2.1839,-2.1853,-2.1685,-2.1685,-2.1685,-2.1684,0,-2.11,-2.1163,-2.1212,-2.128,-2.1322,-2.139,-2.1415,-2.1456,-2.1461,-2.1483,-2.1569,-2.1612,-2.1679,-2.1703,-2.1709,-2.1806,-2.1794,-2.1778,-2.1742,-2.1819,-2.1853,-2.1868,-2.1689,-2.1688,-2.1687,-2.1686,0,0,-2.121,-2.1285,-2.1303,-2.1333,-2.1393,-2.1442,-2.151,-2.1574,-2.1609,-2.1658,-2.1715,-2.1802,-2.1788,-2.1826,-2.1836,-2.1882,-2.1963,-2.186,-2.1862,-2.1878,-2.2072,-2.2084,-2.21,-2.196,-2.1963,-2.1965,-2.2068,0,-2.1308,-2.1427,-2.1442,-2.1548,-2.1606,-2.1604,-2.1663,-2.1706,-2.1729,-2.1783,-2.1809,-2.187,-2.1846,-2.1869,-2.1914,-2.1944,-2.2002,-2.1936,-2.2014,-2.2017,-2.2001,-2.2118,-2.213,-2.2225,-2.2081,-2.2084,-2.2085,0,-2.1438,-2.149,-2.1602,-2.1653,-2.1678,-2.1731,-2.1791,-2.1841,-2.1891,-2.1905,-2.1946,-2.1951,-2.2021,-2.1983,-2.2081,-2.2035,-2.2068,-2.2088,-2.2092,-2.21,-2.2056,-2.2129,-2.2256,-2.227,-2.2107,-2.2105,-2.2104,0,-2.1507,-2.1605,-2.1684,-2.171,-2.1773,-2.181,-2.1838,-2.1884,-2.1922,-2.1974,-2.1999,-2.2059,-2.2093,-2.214,-2.216,-2.213,-2.2257,-2.222,-2.2271,-2.2271,-2.2298,-2.2296,-2.2432,-2.2319,-2.2319,-2.2319,-2.2318,0,-2.1615,-2.1683,-2.1716,-2.1765,-2.1841,-2.1858,-2.1934,-2.196,-2.2002,-2.2056,-2.2058,-2.2109,-2.2133,-2.2188,-2.2205,-2.2284,-2.2299,-2.2312,-2.2316,-2.2312,-2.2311,-2.2334,-2.2328,-2.2322,-2.2321,-2.2321,-2.232,0,-2.1705,-2.1729,-2.1816,-2.1867,-2.1882,-2.1936,-2.198,-2.2028,-2.205,-2.2119,-2.2136,-2.2172,-2.2236,-2.2262,-2.2341,-2.2353,-2.2444,-2.2442,-2.2427,-2.2428,-2.2477,-2.2472,-2.2633,-2.2655,-2.2527,-2.2528,-2.2529,0,-2.1772,-2.1825,-2.1882,-2.1917,-2.1946,-2.2004,-2.2042,-2.2061,-2.2101,-2.2161,-2.2202,-2.2266,-2.2319,-2.2423,-2.2456,-2.2517,-2.2517,-2.2569,-2.2526,-2.2521,-2.2518,-2.2515,-2.252,-2.2577,-2.2578,-2.258,-2.258,0,-2.1889,-2.1898,-2.1953,-2.2011,-2.2056,-2.2103,-2.2149,-2.2179,-2.2205,-2.2249,-2.2315,-2.2356,-2.2437,-2.2501,-2.2564,-2.2593,-2.2592,-2.2594,-2.2609,-2.2606,-2.2594,-2.2601,-2.2448,-2.259,-2.2589,-2.2588,-2.2588,-2.2587,-2.197,-2.2016,-2.2063,-2.2124,-2.216,-2.2203,-2.225,-2.2278,-2.2333,-2.2399,-2.2407,-2.2478,-2.2526,-2.261,-2.2642,-2.2699,-2.2685,-2.2707,-2.2712,-2.2717,-2.2721,-2.2585,-2.271,-2.271,-2.271,-2.2709,-2.2709,0,-2.2087,-2.2117,-2.2172,-2.2236,-2.2283,-2.2276,-2.2327,-2.2368,-2.2429,-2.2474,-2.2526,-2.2601,-2.2664,-2.2702,-2.2765,-2.2802,-2.2803,-2.2818,-2.2816,-2.2823,-2.2729,-2.271,-2.2816,-2.2816,-2.2816,-2.2816,-2.2816,-2.2816,-2.2154,-2.2231,-2.2246,-2.2342,-2.2372,-2.2441,-2.247,-2.251,-2.2545,-2.263,-2.2681,-2.2705,-2.2747,-2.2813,-2.287,-2.288,-2.2903,-2.2919,-2.2928,-2.284,-2.2829,-2.2819,-2.2801,-2.2924,-2.2924,-2.3017,-2.3018,-2.3018]}]]